Location: Unspecified
(43.4680°N, 87.1740°E)
Time: 20:18:15
(UTC+00:00)

Cosmos 1844 - Pass Details

Date: 17 April 2021
Orbit: 823 x 867 km, 70.9° (Epoch: 11 May)

Event Time Altitude Azimuth Distance (km) Brightness Sun altitude
Exits shadow 19:45:41 45° 330° (NNW) 1,158 4.5 -31.6°
Drops below altitude 10° 19:50:20 10° 16° (NNE) 2,497 7.0 -31.2°
Sets 19:52:52 0° 22° (NNE) 3,430 8.0 -31.0°
